Time,TemperatureF,DewpointF,PressureIn,WindDirection,WindDirectionDegrees,WindSpeedMPH,WindSpeedGustMPH,Humidity,HourlyPrecipIn,Conditions,Clouds,dailyrainin,SoftwareType,DateUTC
2013-04-26 00:12:00,54.0,51.0,-100.00,North,3,0.0,2.0,90,0.00,,,0.02,,2013-04-26 05:12:00,
2013-04-26 00:22:00,54.0,51.0,-100.00,North,3,0.0,2.0,90,0.00,,,0.02,,2013-04-26 05:22:00,
2013-04-26 00:32:00,54.0,51.0,-100.00,North,3,0.0,2.0,90,0.00,,,0.02,,2013-04-26 05:32:00,
2013-04-26 00:42:00,54.0,51.0,-100.00,North,3,0.0,2.0,90,0.00,,,0.02,,2013-04-26 05:42:00,
2013-04-26 01:11:00,51.0,49.0,-100.00,North,351,0.0,0.0,94,0.00,,,0.02,,2013-04-26 06:11:00,
2013-04-26 01:21:00,51.0,49.0,-100.00,North,351,0.0,0.0,94,0.00,,,0.02,,2013-04-26 06:21:00,
2013-04-26 01:32:00,51.0,49.0,-100.00,North,351,0.0,0.0,94,0.00,,,0.02,,2013-04-26 06:32:00,
2013-04-26 01:42:00,51.0,49.0,-100.00,North,351,0.0,0.0,94,0.00,,,0.02,,2013-04-26 06:42:00,
2013-04-26 02:11:00,52.0,49.0,-100.00,NNW,339,0.0,2.0,90,0.00,,,0.01,,2013-04-26 07:11:00,
2013-04-26 02:22:00,52.0,49.0,-100.00,NNW,339,0.0,2.0,90,0.00,,,0.01,,2013-04-26 07:22:00,
2013-04-26 02:31:00,52.0,49.0,-100.00,NNW,339,0.0,2.0,90,0.00,,,0.01,,2013-04-26 07:31:00,
2013-04-26 02:42:00,52.0,49.0,-100.00,NNW,339,0.0,2.0,90,0.00,,,0.01,,2013-04-26 07:42:00,
2013-04-26 03:11:00,51.0,49.0,-100.00,NNW,346,0.0,2.0,93,0.00,,,0.00,,2013-04-26 08:11:00,
2013-04-26 03:21:00,51.0,49.0,-100.00,NNW,346,0.0,2.0,93,0.00,,,0.00,,2013-04-26 08:21:00,
2013-04-26 03:32:00,51.0,49.0,-100.00,NNW,346,0.0,2.0,93,0.00,,,0.00,,2013-04-26 08:32:00,
2013-04-26 03:42:00,51.0,49.0,-100.00,NNW,346,0.0,2.0,93,0.00,,,0.00,,2013-04-26 08:42:00,
2013-04-26 04:11:00,50.0,48.0,-100.00,NNW,340,0.0,0.0,94,0.00,,,0.00,,2013-04-26 09:11:00,
2013-04-26 04:21:00,50.0,48.0,-100.00,NNW,340,0.0,0.0,94,0.00,,,0.00,,2013-04-26 09:21:00,
2013-04-26 04:33:00,50.0,48.0,-100.00,NNW,340,0.0,0.0,94,0.00,,,0.00,,2013-04-26 09:33:00,
2013-04-26 04:42:00,50.0,48.0,-100.00,NNW,340,0.0,0.0,94,0.00,,,0.00,,2013-04-26 09:42:00,
2013-04-26 05:12:00,50.0,49.0,-100.00,NW,326,0.0,2.0,95,0.00,,,0.00,,2013-04-26 10:12:00,
2013-04-26 05:23:00,50.0,49.0,-100.00,NW,326,0.0,2.0,95,0.00,,,0.00,,2013-04-26 10:23:00,
2013-04-26 05:33:00,50.0,49.0,-100.00,NW,326,0.0,2.0,95,0.00,,,0.00,,2013-04-26 10:33:00,
2013-04-26 05:42:00,50.0,49.0,-100.00,NW,326,0.0,2.0,95,0.00,,,0.00,,2013-04-26 10:42:00,
2013-04-26 06:11:00,49.0,48.0,-100.00,ENE,64,0.0,0.0,95,0.00,,,0.00,,2013-04-26 11:11:00,
2013-04-26 06:22:00,49.0,48.0,-100.00,ENE,64,0.0,0.0,95,0.00,,,0.00,,2013-04-26 11:22:00,
2013-04-26 06:32:00,49.0,48.0,-100.00,ENE,64,0.0,0.0,95,0.00,,,0.00,,2013-04-26 11:32:00,
2013-04-26 06:42:00,49.0,48.0,-100.00,ENE,64,0.0,0.0,95,0.00,,,0.00,,2013-04-26 11:42:00,
2013-04-26 07:11:00,49.0,48.0,-100.00,ENE,74,1.0,1.0,97,0.00,,,0.00,,2013-04-26 12:11:00,
2013-04-26 07:21:00,49.0,48.0,-100.00,ENE,74,1.0,1.0,97,0.00,,,0.00,,2013-04-26 12:21:00,
2013-04-26 07:32:00,49.0,48.0,-100.00,ENE,74,1.0,1.0,97,0.00,,,0.00,,2013-04-26 12:32:00,
2013-04-26 07:42:00,49.0,48.0,-100.00,ENE,74,1.0,1.0,97,0.00,,,0.00,,2013-04-26 12:42:00,
2013-04-26 08:11:00,56.0,54.0,-100.00,SE,127,2.0,6.0,93,0.00,,,0.00,,2013-04-26 13:11:00,
2013-04-26 08:21:00,56.0,54.0,-100.00,SE,127,2.0,6.0,93,0.00,,,0.00,,2013-04-26 13:21:00,
2013-04-26 08:32:00,56.0,54.0,-100.00,SE,127,2.0,6.0,93,0.00,,,0.00,,2013-04-26 13:32:00,
2013-04-26 08:42:00,56.0,54.0,-100.00,SE,127,2.0,6.0,93,0.00,,,0.00,,2013-04-26 13:42:00,
2013-04-26 09:11:00,66.0,49.0,-100.00,ESE,122,3.0,7.0,54,0.00,,,0.00,,2013-04-26 14:11:00,
2013-04-26 09:21:00,66.0,49.0,-100.00,ESE,122,3.0,7.0,54,0.00,,,0.00,,2013-04-26 14:21:00,
2013-04-26 09:32:00,66.0,49.0,-100.00,ESE,122,3.0,7.0,54,0.00,,,0.00,,2013-04-26 14:32:00,
2013-04-26 09:42:00,66.0,49.0,-100.00,ESE,122,3.0,7.0,54,0.00,,,0.00,,2013-04-26 14:42:00,
2013-04-26 10:12:00,71.0,47.0,-100.00,ESE,121,3.0,8.0,43,0.00,,,0.00,,2013-04-26 15:12:00,
2013-04-26 10:21:00,71.0,47.0,-100.00,ESE,121,3.0,8.0,43,0.00,,,0.00,,2013-04-26 15:21:00,
2013-04-26 10:33:00,71.0,47.0,-100.00,ESE,121,3.0,8.0,43,0.00,,,0.00,,2013-04-26 15:33:00,
2013-04-26 10:43:00,71.0,47.0,-100.00,ESE,121,3.0,8.0,43,0.00,,,0.00,,2013-04-26 15:43:00,
2013-04-26 11:12:00,74.0,47.0,-100.00,South,172,4.0,9.0,38,0.00,,,0.00,,2013-04-26 16:12:00,
2013-04-26 11:23:00,74.0,47.0,-100.00,South,172,4.0,9.0,38,0.00,,,0.00,,2013-04-26 16:23:00,
2013-04-26 11:33:00,74.0,47.0,-100.00,South,172,4.0,9.0,38,0.00,,,0.00,,2013-04-26 16:33:00,
2013-04-26 11:42:00,74.0,47.0,-100.00,South,172,4.0,9.0,38,0.00,,,0.00,,2013-04-26 16:42:00,
2013-04-26 12:12:00,78.0,47.0,-100.00,ESE,104,3.0,9.0,34,0.00,,,0.00,,2013-04-26 17:12:00,
2013-04-26 12:22:00,78.0,47.0,-100.00,ESE,104,3.0,9.0,34,0.00,,,0.00,,2013-04-26 17:22:00,
2013-04-26 12:32:00,78.0,47.0,-100.00,ESE,104,3.0,9.0,34,0.00,,,0.00,,2013-04-26 17:32:00,
2013-04-26 12:42:00,78.0,47.0,-100.00,ESE,104,3.0,9.0,34,0.00,,,0.00,,2013-04-26 17:42:00,
2013-04-26 13:12:00,80.0,51.0,-100.00,ESE,105,4.0,7.0,36,0.00,,,0.00,,2013-04-26 18:12:00,
2013-04-26 13:22:00,80.0,51.0,-100.00,ESE,105,4.0,7.0,36,0.00,,,0.00,,2013-04-26 18:22:00,
2013-04-26 13:33:00,80.0,51.0,-100.00,ESE,105,4.0,7.0,36,0.00,,,0.00,,2013-04-26 18:33:00,
2013-04-26 13:42:00,80.0,51.0,-100.00,ESE,105,4.0,7.0,36,0.00,,,0.00,,2013-04-26 18:42:00,
2013-04-26 14:12:00,80.0,50.0,-100.00,SSE,148,4.0,9.0,35,0.00,,,0.00,,2013-04-26 19:12:00,
2013-04-26 14:22:00,80.0,50.0,-100.00,SSE,148,4.0,9.0,35,0.00,,,0.00,,2013-04-26 19:22:00,
2013-04-26 14:32:00,80.0,50.0,-100.00,SSE,148,4.0,9.0,35,0.00,,,0.00,,2013-04-26 19:32:00,
2013-04-26 14:41:00,80.0,50.0,-100.00,SSE,148,4.0,9.0,35,0.00,,,0.00,,2013-04-26 19:41:00,
2013-04-26 15:11:00,83.0,54.0,-100.00,SE,130,4.0,9.0,37,0.00,,,0.00,,2013-04-26 20:11:00,
2013-04-26 15:21:00,83.0,54.0,-100.00,SE,130,4.0,9.0,37,0.00,,,0.00,,2013-04-26 20:21:00,
2013-04-26 15:32:00,83.0,54.0,-100.00,SE,130,4.0,9.0,37,0.00,,,0.00,,2013-04-26 20:32:00,
2013-04-26 15:42:00,83.0,54.0,-100.00,SE,130,4.0,9.0,37,0.00,,,0.00,,2013-04-26 20:42:00,
2013-04-26 16:11:00,79.0,49.0,-100.00,SW,223,5.0,11.0,35,0.00,,,0.00,,2013-04-26 21:11:00,
2013-04-26 16:22:00,79.0,49.0,-100.00,SW,223,5.0,11.0,35,0.00,,,0.00,,2013-04-26 21:22:00,
2013-04-26 16:33:00,79.0,49.0,-100.00,SW,223,5.0,11.0,35,0.00,,,0.00,,2013-04-26 21:33:00,
2013-04-26 16:42:00,79.0,49.0,-100.00,SW,223,5.0,11.0,35,0.00,,,0.00,,2013-04-26 21:42:00,
2013-04-26 17:12:00,76.0,49.0,-100.00,South,189,4.0,10.0,38,0.00,,,0.00,,2013-04-26 22:12:00,
2013-04-26 17:23:00,76.0,49.0,-100.00,South,189,4.0,10.0,38,0.00,,,0.00,,2013-04-26 22:23:00,
2013-04-26 17:33:00,76.0,49.0,-100.00,South,189,4.0,10.0,38,0.00,,,0.00,,2013-04-26 22:33:00,
2013-04-26 17:42:00,76.0,49.0,-100.00,South,189,4.0,10.0,38,0.00,,,0.00,,2013-04-26 22:42:00,
2013-04-26 18:11:00,74.0,53.0,-100.00,SSE,164,2.0,8.0,48,0.00,,,0.00,,2013-04-26 23:11:00,
2013-04-26 18:21:00,74.0,53.0,-100.00,SSE,164,2.0,8.0,48,0.00,,,0.00,,2013-04-26 23:21:00,
2013-04-26 18:32:00,74.0,53.0,-100.00,SSE,164,2.0,8.0,48,0.00,,,0.00,,2013-04-26 23:32:00,
2013-04-26 18:42:00,74.0,53.0,-100.00,SSE,164,2.0,8.0,48,0.00,,,0.00,,2013-04-26 23:42:00,
2013-04-26 19:11:00,72.0,56.0,-100.00,South,172,2.0,5.0,57,0.00,,,-99.99,,2013-04-27 00:11:00,
2013-04-26 19:21:00,72.0,56.0,-100.00,South,172,2.0,5.0,57,0.00,,,-99.99,,2013-04-27 00:21:00,
2013-04-26 19:32:00,72.0,56.0,-100.00,South,172,2.0,5.0,57,0.00,,,-99.99,,2013-04-27 00:32:00,
2013-04-26 19:42:00,72.0,56.0,-100.00,South,172,2.0,5.0,57,0.00,,,-99.99,,2013-04-27 00:42:00,
2013-04-26 20:12:00,67.0,58.0,-100.00,West,280,2.0,5.0,74,0.00,,,0.00,,2013-04-27 01:12:00,
2013-04-26 20:21:00,67.0,58.0,-100.00,West,280,2.0,5.0,74,0.00,,,0.00,,2013-04-27 01:21:00,
2013-04-26 20:32:00,67.0,58.0,-100.00,West,280,2.0,5.0,74,0.00,,,0.00,,2013-04-27 01:32:00,
2013-04-26 20:42:00,67.0,58.0,-100.00,West,280,2.0,5.0,74,0.00,,,0.00,,2013-04-27 01:42:00,
2013-04-26 21:11:00,63.0,59.0,-100.00,West,277,0.0,2.0,86,0.00,,,0.00,,2013-04-27 02:11:00,
2013-04-26 21:22:00,63.0,59.0,-100.00,West,277,0.0,2.0,86,0.00,,,0.00,,2013-04-27 02:22:00,
2013-04-26 21:32:00,63.0,59.0,-100.00,West,277,0.0,2.0,86,0.00,,,0.00,,2013-04-27 02:32:00,
2013-04-26 21:42:00,63.0,59.0,-100.00,West,277,0.0,2.0,86,0.00,,,0.00,,2013-04-27 02:42:00,
2013-04-26 22:11:00,63.0,61.0,-100.00,SE,126,0.0,0.0,93,0.00,,,0.00,,2013-04-27 03:11:00,
2013-04-26 22:22:00,63.0,61.0,-100.00,SE,126,0.0,0.0,93,0.00,,,0.00,,2013-04-27 03:22:00,
2013-04-26 22:33:00,63.0,61.0,-100.00,SE,126,0.0,0.0,93,0.00,,,0.00,,2013-04-27 03:33:00,
2013-04-26 22:43:00,63.0,61.0,-100.00,SE,126,0.0,0.0,93,0.00,,,0.00,,2013-04-27 03:43:00,
2013-04-26 23:13:00,63.0,60.0,-100.00,West,274,0.0,2.0,91,0.00,,,0.00,,2013-04-27 04:13:00,
2013-04-26 23:23:00,63.0,60.0,-100.00,West,274,0.0,2.0,91,0.00,,,0.00,,2013-04-27 04:23:00,
2013-04-26 23:33:00,63.0,60.0,-100.00,West,274,0.0,2.0,91,0.00,,,0.00,,2013-04-27 04:33:00,
2013-04-26 23:43:00,63.0,60.0,-100.00,West,274,0.0,2.0,91,0.00,,,0.00,,2013-04-27 04:43:00,